owner,sensor,date,latitude,longitude,air_pressure(mBar),qcFlag 
TABS,ioos:station:wmo:42045:1,2019-01-01T00:00:00Z,26.2168,-96.4998,1014.87,11111222 
TABS,ioos:station:wmo:42045:1,2019-01-01T00:30:00Z,26.2168,-96.4998,1015.69,11111222 
TABS,ioos:station:wmo:42045:1,2019-01-01T01:00:00Z,26.2168,-96.4998,1015.75,11111222 
TABS,ioos:station:wmo:42045:1,2019-01-01T01:30:00Z,26.2168,-96.4998,1015.66,11111222 
TABS,ioos:station:wmo:42045:1,2019-01-01T02:00:00Z,26.2168,-96.4998,1016.29,11111222 
TABS,ioos:station:wmo:42045:1,2019-01-01T02:30:00Z,26.2168,-96.4998,1016.19,11111222 
TABS,ioos:station:wmo:42045:1,2019-01-01T03:00:00Z,26.2168,-96.4998,1015.94,11111222 
TABS,ioos:station:wmo:42045:1,2019-01-01T03:30:00Z,26.2168,-96.4998,1015.93,11111222 
TABS,ioos:station:wmo:42045:1,2019-01-01T04:00:00Z,26.2168,-96.4998,1015.75,11111222 
TABS,ioos:station:wmo:42045:1,2019-01-01T04:30:00Z,26.2168,-96.4998,1015.96,11111222 
TABS,ioos:station:wmo:42045:1,2019-01-01T05:00:00Z,26.2168,-96.4998,1016.37,11111222 
TABS,ioos:station:wmo:42045:1,2019-01-01T05:30:00Z,26.2168,-96.4998,1015.96,11111222 
TABS,ioos:station:wmo:42045:1,2019-01-01T06:00:00Z,26.2168,-96.4998,1016.13,11111222 
TABS,ioos:station:wmo:42045:1,2019-01-01T06:30:00Z,26.2168,-96.4998,1015.62,11111222 
TABS,ioos:station:wmo:42045:1,2019-01-01T07:00:00Z,26.2168,-96.4998,1015.69,11111222 
TABS,ioos:station:wmo:42045:1,2019-01-01T07:30:00Z,26.2168,-96.4998,1015.17,11111222 
TABS,ioos:station:wmo:42045:1,2019-01-01T08:00:00Z,26.2168,-96.4998,1015.46,11111222 
TABS,ioos:station:wmo:42045:1,2019-01-01T08:30:00Z,26.2168,-96.4998,1015.42,11111222 
TABS,ioos:station:wmo:42045:1,2019-01-01T09:00:00Z,26.2168,-96.4998,1015.6,11111222 
TABS,ioos:station:wmo:42045:1,2019-01-01T09:30:00Z,26.2168,-96.4998,1015.41,11111222 
TABS,ioos:station:wmo:42045:1,2019-01-01T10:00:00Z,26.2168,-96.4998,1015.2,11111222 
TABS,ioos:station:wmo:42045:1,2019-01-01T10:30:00Z,26.2168,-96.4998,1015.4,11111222 
TABS,ioos:station:wmo:42045:1,2019-01-01T11:00:00Z,26.2168,-96.4998,1015.31,11111222 
TABS,ioos:station:wmo:42045:1,2019-01-01T11:30:00Z,26.2168,-96.4998,1015.26,11111222 
TABS,ioos:station:wmo:42045:1,2019-01-01T12:00:00Z,26.2168,-96.4998,1015.6,11111222 
TABS,ioos:station:wmo:42045:1,2019-01-01T12:30:00Z,26.2168,-96.4998,1016.21,11111222 
TABS,ioos:station:wmo:42045:1,2019-01-01T13:00:00Z,26.2168,-96.4998,1016.67,11111222 
TABS,ioos:station:wmo:42045:1,2019-01-01T13:30:00Z,26.2168,-96.4998,1017.01,11111222 
TABS,ioos:station:wmo:42045:1,2019-01-01T14:00:00Z,26.2168,-96.4998,1016.92,11111222 
TABS,ioos:station:wmo:42045:1,2019-01-01T14:30:00Z,26.2168,-96.4998,1017.65,11111222 
TABS,ioos:station:wmo:42045:1,2019-01-01T15:00:00Z,26.2168,-96.4998,1018.2,11111222 
TABS,ioos:station:wmo:42045:1,2019-01-01T15:30:00Z,26.2168,-96.4998,1018.54,11111222 
TABS,ioos:station:wmo:42045:1,2019-01-01T16:00:00Z,26.2168,-96.4998,1018.92,11111222 
TABS,ioos:station:wmo:42045:1,2019-01-01T16:30:00Z,26.2168,-96.4998,1018.35,11111222 
TABS,ioos:station:wmo:42045:1,2019-01-01T17:00:00Z,26.2168,-96.4998,1018.13,11111222 
TABS,ioos:station:wmo:42045:1,2019-01-01T17:30:00Z,26.2168,-96.4998,1017.56,11111222 
TABS,ioos:station:wmo:42045:1,2019-01-01T18:00:00Z,26.2168,-96.4998,1017.12,11111222 
TABS,ioos:station:wmo:42045:1,2019-01-01T18:30:00Z,26.2168,-96.4998,1016.32,11111222 
TABS,ioos:station:wmo:42045:1,2019-01-01T19:00:00Z,26.2168,-96.4998,1016.03,11111222 
TABS,ioos:station:wmo:42045:1,2019-01-01T19:30:00Z,26.2168,-96.4998,1015.83,11111222 
TABS,ioos:station:wmo:42045:1,2019-01-01T20:00:00Z,26.2168,-96.4998,1015.26,11111222 
TABS,ioos:station:wmo:42045:1,2019-01-01T20:30:00Z,26.2168,-96.4998,1014.98,11111222 
TABS,ioos:station:wmo:42045:1,2019-01-01T21:00:00Z,26.2168,-96.4998,1014.94,11111222 
TABS,ioos:station:wmo:42045:1,2019-01-01T21:30:00Z,26.2168,-96.4998,1015.29,11111222 
TABS,ioos:station:wmo:42045:1,2019-01-01T22:00:00Z,26.2168,-96.4998,1015.71,11111222 
TABS,ioos:station:wmo:42045:1,2019-01-01T22:30:00Z,26.2168,-96.4998,1016.08,11111222 
TABS,ioos:station:wmo:42045:1,2019-01-01T23:00:00Z,26.2168,-96.4998,1016.33,11111222 
TABS,ioos:station:wmo:42045:1,2019-01-01T23:30:00Z,26.2168,-96.4998,1016.24,11111222 
TABS,ioos:station:wmo:42045:1,2019-01-02T00:00:00Z,26.2168,-96.4998,1016.71,11111222 
TABS,ioos:station:wmo:42045:1,2019-01-02T00:30:00Z,26.2168,-96.4998,1016.23,11111222 
TABS,ioos:station:wmo:42045:1,2019-01-02T01:00:00Z,26.2168,-96.4998,1016.86,11111222 
TABS,ioos:station:wmo:42045:1,2019-01-02T01:30:00Z,26.2168,-96.4998,1017.42,11111222 
TABS,ioos:station:wmo:42045:1,2019-01-02T02:00:00Z,26.2168,-96.4998,1017.83,11111222 
TABS,ioos:station:wmo:42045:1,2019-01-02T02:30:00Z,26.2168,-96.4998,1017.67,11111222 
TABS,ioos:station:wmo:42045:1,2019-01-02T03:00:00Z,26.2168,-96.4998,1017.6,11111222 
TABS,ioos:station:wmo:42045:1,2019-01-02T03:30:00Z,26.2168,-96.4998,1017.16,11111222 
TABS,ioos:station:wmo:42045:1,2019-01-02T04:00:00Z,26.2168,-96.4998,1016.7,11111222 
TABS,ioos:station:wmo:42045:1,2019-01-02T04:30:00Z,26.2168,-96.4998,1016.77,11111222 
TABS,ioos:station:wmo:42045:1,2019-01-02T05:00:00Z,26.2168,-96.4998,1016.16,11111222 
TABS,ioos:station:wmo:42045:1,2019-01-02T05:30:00Z,26.2168,-96.4998,1015.23,11111222 
TABS,ioos:station:wmo:42045:1,2019-01-02T06:00:00Z,26.2168,-96.4998,1015.97,11111222 
TABS,ioos:station:wmo:42045:1,2019-01-02T06:30:00Z,26.2168,-96.4998,1015.9,11111222 
TABS,ioos:station:wmo:42045:1,2019-01-02T07:00:00Z,26.2168,-96.4998,1015.9,11111222 
TABS,ioos:station:wmo:42045:1,2019-01-02T07:30:00Z,26.2168,-96.4998,1015.46,11111222 
TABS,ioos:station:wmo:42045:1,2019-01-02T08:00:00Z,26.2168,-96.4998,1015.53,11111222 
TABS,ioos:station:wmo:42045:1,2019-01-02T08:30:00Z,26.2168,-96.4998,1015.06,11111222 
TABS,ioos:station:wmo:42045:1,2019-01-02T09:00:00Z,26.2168,-96.4998,1014.83,11111222 
TABS,ioos:station:wmo:42045:1,2019-01-02T09:30:00Z,26.2168,-96.4998,1015.2,11111222 
TABS,ioos:station:wmo:42045:1,2019-01-02T10:00:00Z,26.2168,-96.4998,1015.04,11111222 
TABS,ioos:station:wmo:42045:1,2019-01-02T10:30:00Z,26.2168,-96.4998,1014.55,11111222 
TABS,ioos:station:wmo:42045:1,2019-01-02T11:00:00Z,26.2168,-96.4998,1014.65,11111222 
TABS,ioos:station:wmo:42045:1,2019-01-02T11:30:00Z,26.2168,-96.4998,1014.61,11111222 
TABS,ioos:station:wmo:42045:1,2019-01-02T12:00:00Z,26.2168,-96.4998,1014.78,11111222 
TABS,ioos:station:wmo:42045:1,2019-01-02T12:30:00Z,26.2168,-96.4998,1014.83,11111222 
TABS,ioos:station:wmo:42045:1,2019-01-02T13:00:00Z,26.2168,-96.4998,1015.07,11111222 
TABS,ioos:station:wmo:42045:1,2019-01-02T13:30:00Z,26.2168,-96.4998,1015.46,11111222 
TABS,ioos:station:wmo:42045:1,2019-01-02T14:00:00Z,26.2168,-96.4998,1015.88,11111222 
TABS,ioos:station:wmo:42045:1,2019-01-02T14:30:00Z,26.2168,-96.4998,1016.45,11111222 
TABS,ioos:station:wmo:42045:1,2019-01-02T15:00:00Z,26.2168,-96.4998,1016.9,11111222 
TABS,ioos:station:wmo:42045:1,2019-01-02T15:30:00Z,26.2168,-96.4998,1017.45,11111222 
TABS,ioos:station:wmo:42045:1,2019-01-02T16:00:00Z,26.2168,-96.4998,1017.28,11111222 
TABS,ioos:station:wmo:42045:1,2019-01-02T16:30:00Z,26.2168,-96.4998,1017.58,11111222 
TABS,ioos:station:wmo:42045:1,2019-01-02T17:00:00Z,26.2168,-96.4998,1017.17,11111222 
TABS,ioos:station:wmo:42045:1,2019-01-02T17:30:00Z,26.2168,-96.4998,1015.92,11111222 
TABS,ioos:station:wmo:42045:1,2019-01-02T18:00:00Z,26.2168,-96.4998,1015.46,11111222 
TABS,ioos:station:wmo:42045:1,2019-01-02T18:30:00Z,26.2168,-96.4998,1014.69,11111222 
TABS,ioos:station:wmo:42045:1,2019-01-02T19:00:00Z,26.2168,-96.4998,1014.51,11111222 
TABS,ioos:station:wmo:42045:1,2019-01-02T19:30:00Z,26.2168,-96.4998,1013.95,11111222 
TABS,ioos:station:wmo:42045:1,2019-01-02T20:00:00Z,26.2168,-96.4998,1013.66,11111222 
TABS,ioos:station:wmo:42045:1,2019-01-02T20:30:00Z,26.2168,-96.4998,1012.97,11111222 
TABS,ioos:station:wmo:42045:1,2019-01-02T21:00:00Z,26.2168,-96.4998,1012.67,11111222 
TABS,ioos:station:wmo:42045:1,2019-01-02T21:30:00Z,26.2168,-96.4998,1013.11,11111222 
TABS,ioos:station:wmo:42045:1,2019-01-02T22:00:00Z,26.2168,-96.4998,1014.05,11111222 
TABS,ioos:station:wmo:42045:1,2019-01-02T22:30:00Z,26.2168,-96.4998,1014.51,11111222 
TABS,ioos:station:wmo:42045:1,2019-01-02T23:00:00Z,26.2168,-96.4998,1014.66,11111222 
TABS,ioos:station:wmo:42045:1,2019-01-02T23:30:00Z,26.2168,-96.4998,1014.95,11111222 
TABS,ioos:station:wmo:42045:1,2019-01-03T00:00:00Z,26.2168,-96.4998,1014.72,11111222 
TABS,ioos:station:wmo:42045:1,2019-01-03T00:30:00Z,26.2168,-96.4998,1015.04,11111222 
TABS,ioos:station:wmo:42045:1,2019-01-03T01:00:00Z,26.2168,-96.4998,1015.4,11111222 
TABS,ioos:station:wmo:42045:1,2019-01-03T01:30:00Z,26.2168,-96.4998,1015.73,11111222 
TABS,ioos:station:wmo:42045:1,2019-01-03T02:00:00Z,26.2168,-96.4998,1015.67,11111222 
TABS,ioos:station:wmo:42045:1,2019-01-03T02:30:00Z,26.2168,-96.4998,1015.53,11111222 
TABS,ioos:station:wmo:42045:1,2019-01-03T03:00:00Z,26.2168,-96.4998,1015.14,11111222 
TABS,ioos:station:wmo:42045:1,2019-01-03T03:30:00Z,26.2168,-96.4998,1014.69,11111222 
TABS,ioos:station:wmo:42045:1,2019-01-03T04:00:00Z,26.2168,-96.4998,1014.99,11111222 
TABS,ioos:station:wmo:42045:1,2019-01-03T04:30:00Z,26.2168,-96.4998,1014.93,11111222 
TABS,ioos:station:wmo:42045:1,2019-01-03T05:00:00Z,26.2168,-96.4998,1014.56,11111222 
TABS,ioos:station:wmo:42045:1,2019-01-03T05:30:00Z,26.2168,-96.4998,1014.14,11111222 
TABS,ioos:station:wmo:42045:1,2019-01-03T06:00:00Z,26.2168,-96.4998,1014.02,11111222 
TABS,ioos:station:wmo:42045:1,2019-01-03T06:30:00Z,26.2168,-96.4998,1013.89,11111222 
TABS,ioos:station:wmo:42045:1,2019-01-03T07:00:00Z,26.2168,-96.4998,1014.04,11111222 
TABS,ioos:station:wmo:42045:1,2019-01-03T07:30:00Z,26.2168,-96.4998,1014.05,11111222 
TABS,ioos:station:wmo:42045:1,2019-01-03T08:00:00Z,26.2168,-96.4998,1013.89,11111222 
TABS,ioos:station:wmo:42045:1,2019-01-03T08:30:00Z,26.2168,-96.4998,1013.88,11111222 
TABS,ioos:station:wmo:42045:1,2019-01-03T09:00:00Z,26.2168,-96.4998,1013.51,11111222 
TABS,ioos:station:wmo:42045:1,2019-01-03T09:30:00Z,26.2168,-96.4998,1013.37,11111222 
TABS,ioos:station:wmo:42045:1,2019-01-03T10:00:00Z,26.2168,-96.4998,1013.42,11111222 
TABS,ioos:station:wmo:42045:1,2019-01-03T10:30:00Z,26.2168,-96.4998,1013.52,11111222 
TABS,ioos:station:wmo:42045:1,2019-01-03T11:00:00Z,26.2168,-96.4998,1014.25,11111222 
TABS,ioos:station:wmo:42045:1,2019-01-03T11:30:00Z,26.2168,-96.4998,1014.28,11111222 
TABS,ioos:station:wmo:42045:1,2019-01-03T12:00:00Z,26.2168,-96.4998,1015.08,11111222 
TABS,ioos:station:wmo:42045:1,2019-01-03T12:30:00Z,26.2168,-96.4998,1015.37,11111222 
TABS,ioos:station:wmo:42045:1,2019-01-03T13:00:00Z,26.2168,-96.4998,1016.05,11111222 
TABS,ioos:station:wmo:42045:1,2019-01-03T13:30:00Z,26.2168,-96.4998,1015.96,11111222 
TABS,ioos:station:wmo:42045:1,2019-01-03T14:00:00Z,26.2168,-96.4998,1016.65,11111222 
TABS,ioos:station:wmo:42045:1,2019-01-03T14:30:00Z,26.2168,-96.4998,1017.13,11111222 
TABS,ioos:station:wmo:42045:1,2019-01-03T15:00:00Z,26.2168,-96.4998,1017.46,11111222 
TABS,ioos:station:wmo:42045:1,2019-01-03T15:30:00Z,26.2168,-96.4998,1018.23,11111222 
TABS,ioos:station:wmo:42045:1,2019-01-03T16:00:00Z,26.2168,-96.4998,1018.41,11111222 
TABS,ioos:station:wmo:42045:1,2019-01-03T16:30:00Z,26.2168,-96.4998,1018.19,11111222 
TABS,ioos:station:wmo:42045:1,2019-01-03T17:00:00Z,26.2168,-96.4998,1017.95,11111222 
TABS,ioos:station:wmo:42045:1,2019-01-03T17:30:00Z,26.2168,-96.4998,1017.56,11111222 
TABS,ioos:station:wmo:42045:1,2019-01-03T18:00:00Z,26.2168,-96.4998,1017.15,11111222 
TABS,ioos:station:wmo:42045:1,2019-01-03T18:30:00Z,26.2168,-96.4998,1016.81,11111222 
TABS,ioos:station:wmo:42045:1,2019-01-03T19:00:00Z,26.2168,-96.4998,1016.72,11111222 
TABS,ioos:station:wmo:42045:1,2019-01-03T19:30:00Z,26.2168,-96.4998,1016.48,11111222 
TABS,ioos:station:wmo:42045:1,2019-01-03T20:00:00Z,26.2168,-96.4998,1016.7,11111222 
TABS,ioos:station:wmo:42045:1,2019-01-03T20:30:00Z,26.2168,-96.4998,1016.47,11111222 
TABS,ioos:station:wmo:42045:1,2019-01-03T21:00:00Z,26.2168,-96.4998,1016.21,11111222 
TABS,ioos:station:wmo:42045:1,2019-01-03T21:30:00Z,26.2168,-96.4998,1016.11,11111222 
TABS,ioos:station:wmo:42045:1,2019-01-03T22:00:00Z,26.2168,-96.4998,1016.04,11111222 
TABS,ioos:station:wmo:42045:1,2019-01-03T22:30:00Z,26.2168,-96.4998,1016.13,11111222 
TABS,ioos:station:wmo:42045:1,2019-01-03T23:00:00Z,26.2168,-96.4998,1015.83,11111222 
TABS,ioos:station:wmo:42045:1,2019-01-03T23:30:00Z,26.2168,-96.4998,1016.26,11111222 
TABS,ioos:station:wmo:42045:1,2019-01-04T00:00:00Z,26.2168,-96.4998,1016.24,11111222 
TABS,ioos:station:wmo:42045:1,2019-01-04T00:30:00Z,26.2168,-96.4998,1016.6,11111222 
TABS,ioos:station:wmo:42045:1,2019-01-04T01:00:00Z,26.2168,-96.4998,1016.97,11111222 
TABS,ioos:station:wmo:42045:1,2019-01-04T01:30:00Z,26.2168,-96.4998,1017.75,11111222 
TABS,ioos:station:wmo:42045:1,2019-01-04T02:00:00Z,26.2168,-96.4998,1017.83,11111222 
TABS,ioos:station:wmo:42045:1,2019-01-04T02:30:00Z,26.2168,-96.4998,1017.89,11111222 
TABS,ioos:station:wmo:42045:1,2019-01-04T03:00:00Z,26.2168,-96.4998,1018.0,11111222 
TABS,ioos:station:wmo:42045:1,2019-01-04T03:30:00Z,26.2168,-96.4998,1017.84,11111222 
TABS,ioos:station:wmo:42045:1,2019-01-04T04:00:00Z,26.2168,-96.4998,1018.36,11111222 
TABS,ioos:station:wmo:42045:1,2019-01-04T04:30:00Z,26.2168,-96.4998,1018.25,11111222 
TABS,ioos:station:wmo:42045:1,2019-01-04T05:00:00Z,26.2168,-96.4998,1018.06,11111222 
TABS,ioos:station:wmo:42045:1,2019-01-04T05:30:00Z,26.2168,-96.4998,1018.38,11111222 
TABS,ioos:station:wmo:42045:1,2019-01-04T06:00:00Z,26.2168,-96.4998,1018.48,11111222 
TABS,ioos:station:wmo:42045:1,2019-01-04T06:30:00Z,26.2168,-96.4998,1018.57,11111222 
TABS,ioos:station:wmo:42045:1,2019-01-04T07:00:00Z,26.2168,-96.4998,1018.76,11111222 
TABS,ioos:station:wmo:42045:1,2019-01-04T07:30:00Z,26.2168,-96.4998,1018.92,11111222 
TABS,ioos:station:wmo:42045:1,2019-01-04T08:00:00Z,26.2168,-96.4998,1019.01,11111222 
TABS,ioos:station:wmo:42045:1,2019-01-04T08:30:00Z,26.2168,-96.4998,1018.97,11111222 
TABS,ioos:station:wmo:42045:1,2019-01-04T09:00:00Z,26.2168,-96.4998,1018.77,11111222 
TABS,ioos:station:wmo:42045:1,2019-01-04T09:30:00Z,26.2168,-96.4998,1018.65,11111222 
TABS,ioos:station:wmo:42045:1,2019-01-04T10:00:00Z,26.2168,-96.4998,1018.37,11111222 
TABS,ioos:station:wmo:42045:1,2019-01-04T10:30:00Z,26.2168,-96.4998,1018.0,11111222 
TABS,ioos:station:wmo:42045:1,2019-01-04T11:00:00Z,26.2168,-96.4998,1018.07,11111222 
TABS,ioos:station:wmo:42045:1,2019-01-04T11:30:00Z,26.2168,-96.4998,1018.37,11111222 
TABS,ioos:station:wmo:42045:1,2019-01-04T12:00:00Z,26.2168,-96.4998,1018.57,11111222 
TABS,ioos:station:wmo:42045:1,2019-01-04T12:30:00Z,26.2168,-96.4998,1019.04,11111222 
TABS,ioos:station:wmo:42045:1,2019-01-04T13:00:00Z,26.2168,-96.4998,1019.59,11111222 
TABS,ioos:station:wmo:42045:1,2019-01-04T13:30:00Z,26.2168,-96.4998,1019.98,11111222 
TABS,ioos:station:wmo:42045:1,2019-01-04T14:00:00Z,26.2168,-96.4998,1020.08,11111222 
TABS,ioos:station:wmo:42045:1,2019-01-04T14:30:00Z,26.2168,-96.4998,1020.8,11111222 
TABS,ioos:station:wmo:42045:1,2019-01-04T15:00:00Z,26.2168,-96.4998,1021.02,11111222 
TABS,ioos:station:wmo:42045:1,2019-01-04T15:30:00Z,26.2168,-96.4998,1021.38,11111222 
TABS,ioos:station:wmo:42045:1,2019-01-04T16:00:00Z,26.2168,-96.4998,1021.58,11111222 
TABS,ioos:station:wmo:42045:1,2019-01-04T16:30:00Z,26.2168,-96.4998,1021.59,11111222 
TABS,ioos:station:wmo:42045:1,2019-01-04T17:00:00Z,26.2168,-96.4998,1021.29,11111222 
TABS,ioos:station:wmo:42045:1,2019-01-04T17:30:00Z,26.2168,-96.4998,1021.01,11111222 
TABS,ioos:station:wmo:42045:1,2019-01-04T18:00:00Z,26.2168,-96.4998,1020.51,11111222 
TABS,ioos:station:wmo:42045:1,2019-01-04T18:30:00Z,26.2168,-96.4998,1019.89,11111222 
TABS,ioos:station:wmo:42045:1,2019-01-04T19:00:00Z,26.2168,-96.4998,1019.4,11111222 
TABS,ioos:station:wmo:42045:1,2019-01-04T19:30:00Z,26.2168,-96.4998,1019.12,11111222 
TABS,ioos:station:wmo:42045:1,2019-01-04T20:00:00Z,26.2168,-96.4998,1018.93,11111222 
TABS,ioos:station:wmo:42045:1,2019-01-04T20:30:00Z,26.2168,-96.4998,1018.62,11111222 
TABS,ioos:station:wmo:42045:1,2019-01-04T21:00:00Z,26.2168,-96.4998,1018.67,11111222 
TABS,ioos:station:wmo:42045:1,2019-01-04T21:30:00Z,26.2168,-96.4998,1018.5,11111222 
TABS,ioos:station:wmo:42045:1,2019-01-04T22:00:00Z,26.2168,-96.4998,1018.6,11111222 
TABS,ioos:station:wmo:42045:1,2019-01-04T22:30:00Z,26.2168,-96.4998,1018.63,11111222 
TABS,ioos:station:wmo:42045:1,2019-01-04T23:00:00Z,26.2168,-96.4998,1018.45,11111222 
TABS,ioos:station:wmo:42045:1,2019-01-04T23:30:00Z,26.2168,-96.4998,1018.46,11111222 
TABS,ioos:station:wmo:42045:1,2019-01-05T00:00:00Z,26.2168,-96.4998,1018.57,11111222 
TABS,ioos:station:wmo:42045:1,2019-01-05T00:30:00Z,26.2168,-96.4998,1018.73,11111222 
TABS,ioos:station:wmo:42045:1,2019-01-05T01:00:00Z,26.2168,-96.4998,1018.99,11111222 
TABS,ioos:station:wmo:42045:1,2019-01-05T01:30:00Z,26.2168,-96.4998,1019.28,11111222 
TABS,ioos:station:wmo:42045:1,2019-01-05T02:00:00Z,26.2168,-96.4998,1019.49,11111222 
TABS,ioos:station:wmo:42045:1,2019-01-05T02:30:00Z,26.2168,-96.4998,1019.72,11111222 
TABS,ioos:station:wmo:42045:1,2019-01-05T03:00:00Z,26.2168,-96.4998,1019.9,11111222 
TABS,ioos:station:wmo:42045:1,2019-01-05T03:30:00Z,26.2168,-96.4998,1020.19,11111222 
TABS,ioos:station:wmo:42045:1,2019-01-05T04:00:00Z,26.2168,-96.4998,1020.3,11111222 
TABS,ioos:station:wmo:42045:1,2019-01-05T04:30:00Z,26.2168,-96.4998,1019.92,11111222 
TABS,ioos:station:wmo:42045:1,2019-01-05T05:00:00Z,26.2168,-96.4998,1019.78,11111222 
TABS,ioos:station:wmo:42045:1,2019-01-05T05:30:00Z,26.2168,-96.4998,1019.84,11111222 
TABS,ioos:station:wmo:42045:1,2019-01-05T06:00:00Z,26.2168,-96.4998,1020.02,11111222 
TABS,ioos:station:wmo:42045:1,2019-01-05T06:30:00Z,26.2168,-96.4998,1019.99,11111222 
TABS,ioos:station:wmo:42045:1,2019-01-05T07:00:00Z,26.2168,-96.4998,1020.08,11111222 
TABS,ioos:station:wmo:42045:1,2019-01-05T07:30:00Z,26.2168,-96.4998,1019.9,11111222 
TABS,ioos:station:wmo:42045:1,2019-01-05T08:00:00Z,26.2168,-96.4998,1020.0,11111222 
TABS,ioos:station:wmo:42045:1,2019-01-05T08:30:00Z,26.2168,-96.4998,1020.13,11111222 
TABS,ioos:station:wmo:42045:1,2019-01-05T09:00:00Z,26.2168,-96.4998,1020.16,11111222 
TABS,ioos:station:wmo:42045:1,2019-01-05T09:30:00Z,26.2168,-96.4998,1020.28,11111222 
TABS,ioos:station:wmo:42045:1,2019-01-05T10:00:00Z,26.2168,-96.4998,1020.26,11111222 
TABS,ioos:station:wmo:42045:1,2019-01-05T10:30:00Z,26.2168,-96.4998,1020.35,11111222 
TABS,ioos:station:wmo:42045:1,2019-01-05T11:00:00Z,26.2168,-96.4998,1020.33,11111222 
TABS,ioos:station:wmo:42045:1,2019-01-05T11:30:00Z,26.2168,-96.4998,1020.36,11111222 
TABS,ioos:station:wmo:42045:1,2019-01-05T12:00:00Z,26.2168,-96.4998,1020.52,11111222 
TABS,ioos:station:wmo:42045:1,2019-01-05T12:30:00Z,26.2168,-96.4998,1020.91,11111222 
TABS,ioos:station:wmo:42045:1,2019-01-05T13:00:00Z,26.2168,-96.4998,1021.28,11111222 
TABS,ioos:station:wmo:42045:1,2019-01-05T13:30:00Z,26.2168,-96.4998,1021.68,11111222 
TABS,ioos:station:wmo:42045:1,2019-01-05T14:00:00Z,26.2168,-96.4998,1022.14,11111222 
TABS,ioos:station:wmo:42045:1,2019-01-05T14:30:00Z,26.2168,-96.4998,1022.7,11111222 
TABS,ioos:station:wmo:42045:1,2019-01-05T15:00:00Z,26.2168,-96.4998,1023.13,11111222 
TABS,ioos:station:wmo:42045:1,2019-01-05T15:30:00Z,26.2168,-96.4998,1023.52,11111222 
TABS,ioos:station:wmo:42045:1,2019-01-05T16:00:00Z,26.2168,-96.4998,1023.63,11111222 
TABS,ioos:station:wmo:42045:1,2019-01-05T16:30:00Z,26.2168,-96.4998,1023.56,11111222 
TABS,ioos:station:wmo:42045:1,2019-01-05T17:00:00Z,26.2168,-96.4998,1023.25,11111222 
TABS,ioos:station:wmo:42045:1,2019-01-05T17:30:00Z,26.2168,-96.4998,1022.92,11111222 
TABS,ioos:station:wmo:42045:1,2019-01-05T18:00:00Z,26.2168,-96.4998,1022.57,11111222 
TABS,ioos:station:wmo:42045:1,2019-01-05T18:30:00Z,26.2168,-96.4998,1022.18,11111222 
TABS,ioos:station:wmo:42045:1,2019-01-05T19:00:00Z,26.2168,-96.4998,1021.76,11111222 
TABS,ioos:station:wmo:42045:1,2019-01-05T19:30:00Z,26.2168,-96.4998,1021.44,11111222 
TABS,ioos:station:wmo:42045:1,2019-01-05T20:00:00Z,26.2168,-96.4998,1021.16,11111222 
TABS,ioos:station:wmo:42045:1,2019-01-05T20:30:00Z,26.2168,-96.4998,1020.88,11111222 
TABS,ioos:station:wmo:42045:1,2019-01-05T21:00:00Z,26.2168,-96.4998,1020.77,11111222 
TABS,ioos:station:wmo:42045:1,2019-01-05T21:30:00Z,26.2168,-96.4998,1020.93,11111222 
TABS,ioos:station:wmo:42045:1,2019-01-05T22:00:00Z,26.2168,-96.4998,1020.79,11111222 
TABS,ioos:station:wmo:42045:1,2019-01-05T22:30:00Z,26.2168,-96.4998,1020.66,11111222 
TABS,ioos:station:wmo:42045:1,2019-01-05T23:00:00Z,26.2168,-96.4998,1020.59,11111222 
TABS,ioos:station:wmo:42045:1,2019-01-05T23:30:00Z,26.2168,-96.4998,1020.73,11111222 
TABS,ioos:station:wmo:42045:1,2019-01-06T00:00:00Z,26.2168,-96.4998,1020.78,11111222 
TABS,ioos:station:wmo:42045:1,2019-01-06T00:30:00Z,26.2168,-96.4998,1020.87,11111222 
TABS,ioos:station:wmo:42045:1,2019-01-06T01:00:00Z,26.2168,-96.4998,1021.02,11111222 
TABS,ioos:station:wmo:42045:1,2019-01-06T01:30:00Z,26.2168,-96.4998,1021.26,11111222 
TABS,ioos:station:wmo:42045:1,2019-01-06T02:00:00Z,26.2168,-96.4998,1021.31,11111222 
TABS,ioos:station:wmo:42045:1,2019-01-06T02:30:00Z,26.2168,-96.4998,1021.21,11111222 
TABS,ioos:station:wmo:42045:1,2019-01-06T03:00:00Z,26.2168,-96.4998,1021.29,11111222 
TABS,ioos:station:wmo:42045:1,2019-01-06T03:30:00Z,26.2168,-96.4998,1021.45,11111222 
TABS,ioos:station:wmo:42045:1,2019-01-06T04:00:00Z,26.2168,-96.4998,1021.55,11111222 
TABS,ioos:station:wmo:42045:1,2019-01-06T04:30:00Z,26.2168,-96.4998,1021.48,11111222 
TABS,ioos:station:wmo:42045:1,2019-01-06T05:00:00Z,26.2168,-96.4998,1021.22,11111222 
TABS,ioos:station:wmo:42045:1,2019-01-06T05:30:00Z,26.2168,-96.4998,1021.18,11111222 
TABS,ioos:station:wmo:42045:1,2019-01-06T06:00:00Z,26.2168,-96.4998,1021.05,11111222 
TABS,ioos:station:wmo:42045:1,2019-01-06T06:30:00Z,26.2168,-96.4998,1020.81,11111222 
TABS,ioos:station:wmo:42045:1,2019-01-06T07:00:00Z,26.2168,-96.4998,1020.62,11111222 
TABS,ioos:station:wmo:42045:1,2019-01-06T07:30:00Z,26.2168,-96.4998,1020.57,11111222 
TABS,ioos:station:wmo:42045:1,2019-01-06T08:00:00Z,26.2168,-96.4998,1020.5,11111222 
TABS,ioos:station:wmo:42045:1,2019-01-06T08:30:00Z,26.2168,-96.4998,1020.38,11111222 
TABS,ioos:station:wmo:42045:1,2019-01-06T09:00:00Z,26.2168,-96.4998,1020.2,11111222 
TABS,ioos:station:wmo:42045:1,2019-01-06T09:30:00Z,26.2168,-96.4998,1020.16,11111222 
TABS,ioos:station:wmo:42045:1,2019-01-06T10:00:00Z,26.2168,-96.4998,1019.87,11111222 
TABS,ioos:station:wmo:42045:1,2019-01-06T10:30:00Z,26.2168,-96.4998,1019.85,11111222 
TABS,ioos:station:wmo:42045:1,2019-01-06T11:00:00Z,26.2168,-96.4998,1019.84,11111222 
TABS,ioos:station:wmo:42045:1,2019-01-06T11:30:00Z,26.2168,-96.4998,1019.65,11111222 
TABS,ioos:station:wmo:42045:1,2019-01-06T12:00:00Z,26.2168,-96.4998,1019.73,11111222 
TABS,ioos:station:wmo:42045:1,2019-01-06T12:30:00Z,26.2168,-96.4998,1019.86,11111222 
TABS,ioos:station:wmo:42045:1,2019-01-06T13:00:00Z,26.2168,-96.4998,1019.9,11111222 
TABS,ioos:station:wmo:42045:1,2019-01-06T13:30:00Z,26.2168,-96.4998,1020.08,11111222 
TABS,ioos:station:wmo:42045:1,2019-01-06T14:00:00Z,26.2168,-96.4998,1020.33,11111222 
TABS,ioos:station:wmo:42045:1,2019-01-06T14:30:00Z,26.2168,-96.4998,1020.59,11111222 
TABS,ioos:station:wmo:42045:1,2019-01-06T15:00:00Z,26.2168,-96.4998,1020.71,11111222 
TABS,ioos:station:wmo:42045:1,2019-01-06T15:30:00Z,26.2168,-96.4998,1021.07,11111222 
TABS,ioos:station:wmo:42045:1,2019-01-06T16:00:00Z,26.2168,-96.4998,1021.61,11111222 
TABS,ioos:station:wmo:42045:1,2019-01-06T16:30:00Z,26.2168,-96.4998,1021.47,11111222 
TABS,ioos:station:wmo:42045:1,2019-01-06T17:00:00Z,26.2168,-96.4998,1021.1,11111222 
TABS,ioos:station:wmo:42045:1,2019-01-06T17:30:00Z,26.2168,-96.4998,1020.5,11111222 
TABS,ioos:station:wmo:42045:1,2019-01-06T18:00:00Z,26.2168,-96.4998,1019.87,11111222 
TABS,ioos:station:wmo:42045:1,2019-01-06T18:30:00Z,26.2168,-96.4998,1019.35,11111222 